Hattiesburg, MS

9:36 PM CDT on August 17, 2017 (GMT -0500)
Chain Municipal

Weather History for KHBG - January, 2008

Change the Weather History Date:

Tuesday, January 1, 2008

  Actual Average Record
Temperature  
Mean Temperature 44 °F 49 °F  
Max Temperature 52 °F 60 °F 81 °F (1952)
Min Temperature 35 °F 38 °F 17 °F (1984)
Degree Days  
Heating Degree Days 22 16  
Month to date heating degree days 16  
Since 1 July heating degree days 801  
Cooling Degree Days 0 0  
Month to date cooling degree days 0  
Year to date cooling degree days 0  
Moisture  
Dew Point 24 °F    
Average Humidity 46    
Maximum Humidity 64    
Minimum Humidity 26    
Precipitation  
Precipitation 0.00 in 0.19 in 2.32 in (1986)
Month to date precipitation 0.19  
Year to date precipitation 0.19  
Sea Level Pressure  
Sea Level Pressure 30.46 in    
Wind  
Wind Speed 9 mph (NNW)    
Max Wind Speed 18 mph    
Max Gust Speed 29 mph    
Visibility 10 miles    
Events      
T = Trace of Precipitation, MM = Missing Value Source: NWS Daily Summary

Daily Weather History Graph

Daily Weather History Graph

Search for Another Location

Airport or City:

Trip Planner

Search our weather history database for the weather conditions in past years. The results will help you decide how hot, cold, wet, or windy it might be!

Date:

Astronomy

Jan. 01, 2008 Rise Set
Actual Time 6:55 AM CST 5:05 PM CST
Civil Twilight 6:29 AM CST 5:31 PM CST
Nautical Twilight 5:58 AM CST 6:02 PM CST
Astronomical Twilight 5:29 AM CST 6:31 PM CST
Moon 12:56 AM CST (1/1) 12:09 PM CST (1/1)
Length of Visible Light 11h 02m
Length of Day
10h 09m
Last Quarter, 37% of the Moon is Illuminated
Jan 1
Last Quarter
Jan 8
New
Jan 15
First Quarter
Jan 22
Full
Jan 29
Last Quarter

Hourly Weather History & Observations

Time (CST) Temp. Windchill Dew Point Humidity Pressure Visibility Wind Dir Wind Speed Gust Speed Precip Events Conditions
12:53 AM 51.1 °F - 37.9 °F 61% 30.25 in 10.0 mi NNW 9.2 mph 18.4 mph N/A   Clear
1:53 AM 50.0 °F - 30.9 °F 48% 30.29 in 10.0 mi NNW 9.2 mph 18.4 mph N/A   Clear
2:53 AM 46.0 °F 42.5 °F 30.9 °F 56% 30.32 in 10.0 mi NW 6.9 mph - N/A   Clear
3:53 AM 45.0 °F 41.8 °F 28.0 °F 52% 30.35 in 10.0 mi NW 5.8 mph - N/A   Clear
4:53 AM 44.1 °F 40.1 °F 27.0 °F 51% 30.36 in 10.0 mi NNW 6.9 mph - N/A   Clear
5:53 AM 41.0 °F 37.1 °F 27.0 °F 57% 30.40 in 10.0 mi NW 5.8 mph - N/A   Clear
6:53 AM 41.0 °F 35.8 °F 27.0 °F 57% 30.43 in 10.0 mi NW 8.1 mph - N/A   Clear
7:53 AM 42.1 °F 36.6 °F 27.0 °F 55% 30.47 in 10.0 mi NNW 9.2 mph - N/A   Clear
8:53 AM 44.1 °F 37.4 °F 26.1 °F 49% 30.50 in 10.0 mi North 13.8 mph 20.7 mph N/A   Clear
9:53 AM 46.0 °F 39.9 °F 25.0 °F 44% 30.51 in 10.0 mi North 13.8 mph 26.5 mph N/A   Clear
10:53 AM 48.9 °F - 24.1 °F 38% 30.51 in 10.0 mi NNW 10.4 mph 19.6 mph N/A   Clear
11:53 AM 50.0 °F - 21.9 °F 33% 30.50 in 10.0 mi NNW 12.7 mph 24.2 mph N/A   Clear
12:53 PM 51.1 °F - 19.9 °F 29% 30.47 in 10.0 mi NNW 18.4 mph 28.8 mph N/A   Clear
1:53 PM 52.0 °F - 19.0 °F 27% 30.47 in 10.0 mi NNW 15.0 mph 20.7 mph N/A   Clear
2:53 PM 51.1 °F - 18.0 °F 27% 30.47 in 10.0 mi NNW 13.8 mph - N/A   Clear
3:53 PM 50.0 °F - 16.0 °F 26% 30.47 in 10.0 mi NW 16.1 mph 21.9 mph N/A   Clear
4:53 PM 46.9 °F - 17.1 °F 30% 30.48 in 10.0 mi NW 6.9 mph - N/A   Clear
5:53 PM 44.1 °F 40.8 °F 18.0 °F 35% 30.51 in 10.0 mi NNW 5.8 mph - N/A   Clear
6:53 PM 42.1 °F 38.4 °F 19.0 °F 40% 30.52 in 10.0 mi NW 5.8 mph - N/A   Clear
7:53 PM 37.0 °F 34.5 °F 24.1 °F 59% 30.53 in 10.0 mi West 3.5 mph - N/A   Clear
8:53 PM 35.1 °F 31.0 °F 24.1 °F 64% 30.56 in 10.0 mi NW 4.6 mph - N/A   Clear
9:53 PM 37.9 °F 32.7 °F 23.0 °F 55% 30.58 in 10.0 mi NNW 6.9 mph - N/A   Clear
10:53 PM 37.9 °F 31.5 °F 21.9 °F 53% 30.59 in 10.0 mi NNW 9.2 mph - N/A   Clear
11:53 PM 37.0 °F 30.4 °F 18.0 °F 46% 30.60 in 10.0 mi NNW 9.2 mph - N/A   Clear